www.pogodaiklimat.ru

Погода и климат >> Архив погоды >> Мексика >> Arriaga


ПОГОДА в Arriaga

  • Прогноз погоды в Arriaga
  • Монитор погоды в Arriaga
  • Климат города

АРХИВ ПОГОДЫ в Arriaga

Время (UTC), дата Ветер
(напр.,м/с)
 
Видим.   Явления Облачность Т
(С)
Тd
(С)
f
(%)
Тe
(С)
Тes
(С)
Комфортность P
(гПа)
Po
(гПа)
Тmin
(С)
Tmax
(С)
R
(мм)
R24
(мм)
S
(см)
03 16.06 штиль 0 2000 м 5/0 2000 м
[As trans]
+24.2 +23.4 95 +32 +32 очень
душно
1012.5 1007.0
06 16.06 штиль 0 2000 м 4/0 2000 м
[As trans]
+23.8 +22.7 94 +31 +31 очень
душно
1013.6 1008.0 +20.0 +32.4
09 16.06 штиль 0 2000 м 4/0 2000 м
[As trans]
+23.4 +22.8 96 +33 +33 очень
душно
1011.6 1006.0
12 16.06 штиль 0 3000 м 5/0 2000 м
[As trans]
+23.0 +22.4 96 +31 +32 очень
душно
1011.6 1006.0 +22.5 +32.4
15 16.06 штиль 0 5000 м 8/0 2000 м
[Ac lent Cc]
+27.0 +24.6 87 +38 +47 очень
душно
1012.6 1007.0
18 16.06 штиль 0 5000 м 9/5 840 м
[Sc diur, vesp Cc]
+30.8 +26.6 78 +47 +60 опасность
перегрева
1011.5 1006.0 +22.5 +32.6
21 16.06 штиль 0 5000 м 9/9 840 м
[Sc]
+28.2 +26.4 90 +43 +45 опасность
перегрева
1009.5 1004.0
00 17.06 штиль 0 5000 м дождь 9/5 600 м
[Sc As op]
+27.0 +25.7 93 +40 +40 очень
душно
1008.5 1003.0 4
03 17.06 штиль 0 2000 м дождь 5/5 840 м
[Sc diur, vesp]
+25.6 +24.5 94 +36 +36 очень
душно
1010.5 1005.0 13
06 17.06 штиль 0 1000 м дождь 5/0 2000 м
[As trans]
+25.2 +24.7 97 +35 +35 очень
душно
1010.6 1005.0 13
09 17.06 штиль 0 1000 м 6/6 840 м
[Sc diur, vesp]
+25.0 +24.7 98 +35 +35 очень
душно
1008.9 1003.4
12 17.06 штиль 0 1000 м 6/6 840 м
[Sc diur, vesp]
+24.8 +24.5 98 +35 +35 очень
душно
1009.0 1003.4 +23.0 +34.2
18 17.06 С 1 3000 м 6/0 2000 м
[As trans]
+30.4 +25.9 77 +45 +62 опасность
перегрева
1009.5 1004.0 +23.0 +31.2
21 17.06 Ю 3 3000 м 6/3 840 м
[Cu med, cong As trans]
+30.1 +26.0 79 +45 +51 опасность
перегрева
1007.1 1001.6
00 18.06 штиль 0 3000 м 6/0 2000 м
[As op]
+29.0 +26.1 84 +44 +44 опасность
перегрева
1007.2 1001.8 +23.0 +31.8
03 18.06 штиль 0 1000 м слабая морось 8/8 840 м
[Sc]
+37.0 +25.4 52 +51 +51 опасность
перегрева
1009.0 1003.5 0.4
09 18.06 штиль 0 1000 м 6/6 840 м
[Sc diur, vesp]
+25.6 +25.3 98 +37 +37 очень
душно
1007.7 1002.2
12 18.06 штиль 0 1000 м 9/5 840 м
[Sc diur, vesp As trans]
+25.4 +25.1 98 +36 +36 очень
душно
1007.8 1002.5 +24.8 +31.8
15 18.06 штиль 0 2000 м 10/5 840 м
[Sc diur, vesp As trans]
+27.8 +25.4 87 +41 +44 опасность
перегрева
1008.0 1002.5
18 18.06 Ю 1 3000 м 5/0 2000 м
[As trans]
+32.0 +26.2 71 +48 +66 опасность
перегрева
1006.7 1001.1 +24.8 +33.2
21 18.06 Ю 2 2000 м 10/6 840 м
[Sc As trans]
+29.6 +26.4 83 +45 +47 опасность
перегрева
1005.7 1000.2
00 19.06 штиль 0 2000 м слабая морось 8/8 600 м
[Sc]
+28.4 +26.6 90 +44 +44 опасность
перегрева
1006.4 1000.9 0.4
03 19.06 штиль 0 1000 м слабая морось 9/9 840 м
[Sc]
+27.0 +25.9 94 +40 +40 очень
душно
1006.4 1000.1 0.2
06 19.06 штиль 0 1000 м слабая морось 9/9 600 м
[Sc diur, vesp]
+26.0 +25.7 98 +38 +38 очень
душно
1007.2 1001.8 0.2
09 19.06 штиль 0 1000 м 6/6 840 м
[Sc diur, vesp]
+25.4 +24.8 96 +36 +36 очень
душно
1006.0 1000.5
15 19.06 С 3 4000 м 5/1 840 м
[Cu med, cong Ac lent]
+30.4 +23.6 67 +41 +46 опасность
перегрева
1006.8 1001.3
18 19.06 В 2 3000 м 6/6 840 м
[Sc diur, vesp]
+34.8 +25.2 58 +49 +58 опасность
перегрева
1006.9 1001.4 +25.2 +35.6
21 19.06 Ю 4 2000 м 8/8 840 м
[Cb cap]
+30.4 +27.3 84 +49 +51 опасность
перегрева
1006.4 1000.9
00 20.06 штиль 0 2000 м дождь 8/8 600 м
[Sc]
+27.0 +25.4 91 +39 +40 очень
душно
1007.2 1001.8 18
03 20.06 Ю 2 1000 м слабый дождь 8/8 840 м
[Sc]
+26.4 +22.8 81 +35 +35 очень
душно
1009.0 1003.5 2
06 20.06 штиль 0 1000 м слабый дождь 6/6 600 м
[Sc diur, vesp]
+26.8 +24.6 88 +38 +38 очень
душно
1009.8 1004.3 2
12 20.06 штиль 0 1000 м 4/0 2000 м
[Ac lent]
+27.0 +23.1 79 +36 +36 очень
душно
1007.7 1002.2 +25.0 +34.2
15 20.06 штиль 0 5000 м 5/0 2000 м
[Ac trans]
+29.4 +23.1 69 +39 +49 очень
душно
1009.6 1004.1
18 20.06 штиль 0 5000 м 6/0 2000 м
[Ac trans]
+33.0 +23.1 56 +43 +62 опасность
перегрева
1009.4 1003.9 +25.0 +34.0
21 20.06 штиль 0 5000 м 6/0 2000 м
[Ac trans]
+32.8 +26.1 68 +49 +60 опасность
перегрева
1006.9 1001.4
00 21.06 штиль 0 5000 м 5/0 2000 м
[Ac und]
+29.9 +26.6 83 +46 +47 опасность
перегрева
1006.7 1001.3 +25.0 +37.5
03 21.06 С 1 100 м 4/0 2000 м
[Ac und]
+29.8 +22.0 63 +38 +38 очень
душно
1009.4 1003.9
06 21.06 С 2 100 м 4/4 800 м
[Cu hum]
+28.8 +23.6 74 +39 +39 очень
душно
1010.5 1005.0 +25.0 +37.5
09 21.06 100 м н/о +27.8 +23.8 79 +38 +38 очень
душно
1010.6 1005.1
12 21.06 штиль 0 1000 м 4/0 2000 м
[Ac inh]
+24.2 +23.1 94 +32 +32 очень
душно
1009.1 1003.5 +23.0 +37.5
15 21.06 штиль 0 5000 м 4/0 2000 м
[Ac inh]
+28.4 +23.3 74 +38 +49 очень
душно
1010.0 1004.5
18 21.06 штиль 0 5000 м 5/0 2000 м
[Ac lent]
+32.9 +26.4 69 +50 +67 опасность
перегрева
1009.0 1003.5 +23.0 +34.0
21 21.06 ЮВ 3 3000 м 5/5 840 м
[Sc diur, vesp]
+31.5 +25.5 71 +46 +52 опасность
перегрева
1008.0 1002.5
00 22.06 В 2 2000 м слабая морось 9/9 600 м
[Cb cap]
+27.5 +26.6 95 +42 +43 опасность
перегрева
1008.8 1003.4 1
03 22.06 штиль 0 1000 м дождь 8/8 840 м
[Sc]
+25.4 +24.9 97 +36 +36 очень
душно
1009.0 1003.6 11
06 22.06 штиль 0 1000 м дождь 9/9 600 м
[Sc]
+25.2 +24.6 96 +35 +35 очень
душно
1011.1 1005.6 13
09 22.06 штиль 0 1000 м 8/8 840 м
[Sc diur, vesp]
+25.2 +24.9 98 +36 +36 очень
душно
1009.5 1003.9
12 22.06 штиль 0 1000 м 9/5 840 м
[Sc Ac lent]
+24.8 +24.3 97 +34 +34 очень
душно
1009.4 1003.8 +24.8 +33.8
15 22.06 штиль 0 3000 м 5/0 2000 м
[Ac trans]
+29.2 +25.2 79 +42 +52 опасность
перегрева
1010.0 1004.5
18 22.06 Ю 2 2000 м 6/0 2000 м
[Ac lent]
+31.6 +26.0 72 +47 +58 опасность
перегрева
1010.3 1004.8 +24.8 +32.4
21 22.06 Ю 2 3000 м слабая морось 8/8 840 м
[Cb cap]
+29.0 +25.8 83 +43 +46 опасность
перегрева
1009.4 1003.9 1
00 23.06 штиль 0 2000 м дождь 10/10 600 м
[Cb cap]
+25.2 +24.4 95 +35 +35 очень
душно
1010.3 1004.8 8

 

Местоположение метеостанции Arriaga (Мексика): широта 16.23 долгота -93.90 высота над уровнем моря 48 м.

В архиве по умолчанию представлена погода в Arriaga за последнюю неделю. Архивные данные за месяц целиком и за предыдущие месяцы, начиная с января 2011 года, Вы можете получить, выбрав интересующий диапазон дат из раскрывающегося списка и нажав кнопку "Ввод!".

Внимание! Время в таблицах - всемирное. Для получения местного времени необходимо прибавить поправку, которая в Arriaga равна -6 ч.

Смотрите также архив погоды в соседних городах и на ближайших метеорологических станциях:

Погода в Tuxtla Gutierrez (Мексика) (100 км)
Погода в Salina Cruz (Мексика) (137 км)
Погода в Sn. Cristobal Las C (Мексика) (147 км)
Погода в Comitan (Мексика) (189 км)
Погода в Coatzacoalcos (Мексика) (218 км)
Погода в Villahermosa (Мексика) (220 км)
Погода в Tapachula City (Мексика) (229 км)
Погода в Huehuetenango (Гватемала) (280 км)
Погода в Puerto Angel (Мексика) (283 км)
Погода в Oaxaca (Мексика) (313 км)

Пояснения к столбцам:

Ветер - указаны скорость ветра в м/с - средняя за 10 мин, порывы в срок и между сроками (в фигурных скобках) и направление, откуда дует ветер: С - северный, СВ - северо-восточный, В - восточный, ЮВ - юго-восточный, Ю - южный, ЮЗ - юго-западный, З - западный, СЗ - северо-западный.
Видимость - горизонтальная дальность видимости в метрах или километрах. При видимости от 1 до 10 км при отсутствии осадков обычно наблюдается дымка, при ухудшении видимости до 1 км и менее - туман. В сухую погоду видимость может ухудшаться дымом, пылью или мглою.
Явления - указаны атмосферные явления, наблюдавшиеся в срок или в последний час перед сроком; фигурными скобками обозначены явления, наблюдавшиеся между сроками (за 1-3 часа до срока); квадратными скобками обозначены град или гололедные отложения с указанием их диаметра в мм.
Облачность - указаны через наклонную черту общая и нижняя облачность в баллах и высота нижней границы облаков в метрах; квадратными скобками обозначены формы облаков: Ci - перистые, Cs - перисто-слоистые, Cc - перисто-кучевые, Ac - высококучевые, As - высокослоистые, Sc - слоисто-кучевые, Ns - слоисто-дождевые, Cu - кучевые, Cb - кучево-дождевые. Подробнее классификацию облаков см. в Атласе облаков (PDF).
T - Температура воздуха - температура, измеренная на высоте 2 м над землей.
Td - Температура точки росы - температура, при понижении до которой содержащийся в воздухе водяной пар достигнет насыщения.
f - Относительная влажность воздуха - влажноcть воздуха, измеренная на высоте 2 м над землей.
Te - Эффективная температура - температура, которую ощущает одетый по сезону человек в тени. Характеристика душности погоды. При расчете учитывается влияние влажности воздуха и скорости ветра на теплоощущения человека.
Tes - Эффективная температура на солнце - температура, которую ощущает человек, с поправкой на солнечный нагрев. Характеристика знойности погоды. Зависит от высоты солнца над горизонтом, облачности и скорости ветра. Ночью, в пасмурную погоду, а также при ветре 12 м/с и более поправка равна нулю.
P - Атмосферное давление - приведенное к уровню моря атмосферное давление.
Po - Атмосферное давление - измеренное на уровне метеостанции атмосферное давление.
Tmin - Минимальная температура - минимум температуры воздуха на высоте 2 м над землей.
Tmax - Максимальная температура - максимум температуры воздуха на высоте 2 м над землей.
R - Количество осадков - Количество выпавших осадков за период времени, мм. При наведении курсора мыши на число - период времени, за который выпало указанное количество осадков.
R24 - Количество осадков - Количество выпавших осадков за 24 часа, мм.
S - Снежный покров - Высота снежного покрова, см. При наведении курсора мыши на число - состояние снежного покрова и степень покрытия местности в баллах.